Volver al catálogo

FENGYUN 1C DEB

ActivoPO
NORAD 29791·DEBRIS·🇨🇳 China

Lanzado May 10, 1999 desde Taiyuan Satellite Launch Center

Loading…

Próximos Pases (próximas 24 horas)

TLE

ActualizadoSource: Space-Track

Época: Sep 14, 2026, 20:36 UTC

1 29791U 99025CH  26257.85902456  .00003708  00000-0  75108-3 0  9996
2 29791  99.0291 288.0571 0036854 301.2776 239.3549 14.61548918 28757

Sigue FENGYUN 1C DEB en tiempo real con AllMySat

Download on the App Store